Weather History for Tomahawk, WI

Change the Weather History Date:

Sunday, January 5, 2014

  Actual Average (KRHI) Record (KRHI)
Temperature  
Mean Temperature -10 °F 12 °F  
Max Temperature -1 °F 22 °F 41 °F (1946)
Min Temperature -18 °F 4 °F -29 °F (1972)
Degree Days  
Heating Degree Days 74 52  
Month to date heating degree days 260  
Since 1 July heating degree days 3886  
Cooling Degree Days 0 0  
Month to date cooling degree days 0  
Year to date cooling degree days 0  
Moisture  
Dew Point -17 °F    
Average Humidity 71    
Maximum Humidity 80    
Minimum Humidity 55    
Precipitation  
Precipitation 0.00 in 0.04 in 1.00 in (1946)
Month to date precipitation 0.19  
Year to date precipitation 0.19  
Snow  
Snow 0.00 in - 6.00 in (1932)
Month to date snowfall  
Since 1 July snowfall  
Snow Depth -    
Sea Level Pressure  
Sea Level Pressure 30.10 in    
Wind  
Wind Speed 6 mph (NW)    
Max Wind Speed 10 mph    
Max Gust Speed -    
Visibility 10 miles    
Events      
T = Trace of Precipitation, MM = Missing Value Source: NWS Daily Summary

Daily Weather History Graph

Daily Weather History Graph

Search for Another Location

Airport:

Trip Planner

Search our weather history database for the weather conditions in past years. The results will help you decide how hot, cold, wet, or windy it might be!

Date:

Astronomy

Jan. 05, 2014 Rise Set
Actual Time 7:39 AM CST 4:30 PM CST
Civil Twilight 7:05 AM CST 5:04 PM CST
Nautical Twilight 6:27 AM CST 5:41 PM CST
Astronomical Twilight 5:52 AM CST 6:17 PM CST
Moon 10:05 AM CST (1/5) 10:15 PM CST (1/5)
Length of Visible Light 9h 59m
Length of Day
8h 51m
Waxing Crescent, 25% of the Moon is Illuminated
Jan 5
Waxing Crescent
Jan 7
First Quarter
Jan 15
Full
Jan 23
Last Quarter
Jan 30
New

Hourly Weather History & Observations

Time (CST) Temp. Windchill Dew Point Humidity Pressure Visibility Wind Dir Wind Speed Gust Speed Precip Events Conditions
12:15 AM -1.7 °F -14.9 °F -6.9 °F 78% 30.05 in 10.0 mi WNW 6.9 mph - N/A   Clear
12:35 AM -1.8 °F -13.7 °F -7.6 °F 76% 30.06 in 10.0 mi WNW 5.8 mph - N/A   Mostly Cloudy
12:55 AM -2.4 °F -12.7 °F -8.3 °F 76% 30.07 in 10.0 mi WNW 4.6 mph - N/A   Scattered Clouds
1:15 AM -4.7 °F -15.4 °F -9.9 °F 78% 30.07 in 10.0 mi WNW 4.6 mph - N/A   Clear
1:35 AM -5.3 °F -16.0 °F -10.3 °F 79% 30.08 in 10.0 mi West 4.6 mph - N/A   Clear
1:55 AM -5.8 °F -16.7 °F -10.7 °F 79% 30.09 in 10.0 mi WNW 4.6 mph - N/A   Clear
2:15 AM -5.8 °F -18.4 °F -10.5 °F 80% 30.09 in 10.0 mi WNW 5.8 mph - N/A   Clear
2:35 AM -6.2 °F -18.9 °F -11.2 °F 79% 30.09 in 10.0 mi WNW 5.8 mph - N/A   Clear
2:55 AM -5.8 °F -19.9 °F -10.8 °F 79% 30.09 in 10.0 mi WNW 6.9 mph - N/A   Clear
3:15 AM -6.0 °F -20.1 °F -11.2 °F 78% 30.10 in 10.0 mi WNW 6.9 mph - N/A   Clear
3:35 AM -6.3 °F -19.1 °F -11.4 °F 79% 30.10 in 10.0 mi NW 5.8 mph - N/A   Clear
3:55 AM -8.0 °F -16.9 °F -12.8 °F 79% 30.10 in 10.0 mi WNW 3.5 mph - N/A   Clear
4:15 AM -8.5 °F -17.6 °F -13.2 °F 80% 30.11 in 10.0 mi West 3.5 mph - N/A   Clear
4:35 AM -8.7 °F -20.0 °F -13.4 °F 80% 30.12 in 10.0 mi West 4.6 mph - N/A   Clear
4:55 AM -9.4 °F -20.9 °F -14.1 °F 80% 30.12 in 10.0 mi WNW 4.6 mph - N/A   Clear
5:15 AM -9.4 °F -24.3 °F -14.1 °F 80% 30.13 in 10.0 mi WNW 6.9 mph - N/A   Clear
5:35 AM -9.4 °F -25.6 °F -14.3 °F 79% 30.14 in 10.0 mi WNW 8.1 mph - N/A   Clear
5:55 AM -10.3 °F -23.8 °F -15.2 °F 79% 30.15 in 10.0 mi West 5.8 mph - N/A   Clear
6:15 AM -10.5 °F -19.8 °F -15.3 °F 79% 30.15 in 10.0 mi WNW 3.5 mph - N/A   Clear
6:35 AM -12.1 °F -24.0 °F -16.8 °F 80% 30.15 in 10.0 mi WNW 4.6 mph - N/A   Clear
6:55 AM -12.1 °F -25.9 °F -16.8 °F 80% 30.15 in 10.0 mi WNW 5.8 mph - N/A   Clear
7:15 AM -13.0 °F -25.1 °F -18.4 °F 77% 30.16 in 10.0 mi WNW 4.6 mph - N/A   Clear
7:35 AM -13.9 °F - -18.9 °F 78% 30.16 in 10.0 mi Calm Calm - N/A   Clear
7:55 AM -14.8 °F - -19.8 °F 78% 30.17 in 10.0 mi Calm Calm - N/A   Clear
8:15 AM -15.7 °F -25.8 °F -20.6 °F 79% 30.18 in 10.0 mi WNW 3.5 mph - N/A   Clear
8:35 AM -14.8 °F -27.2 °F -19.7 °F 79% 30.18 in 10.0 mi WNW 4.6 mph - N/A   Clear
8:55 AM -14.1 °F -29.9 °F -19.3 °F 77% 30.17 in 10.0 mi NW 6.9 mph - N/A   Clear
9:15 AM -13.7 °F -30.9 °F -19.1 °F 77% 30.17 in 10.0 mi NW 8.1 mph - N/A   Clear
9:35 AM -13.4 °F -30.4 °F -18.9 °F 76% 30.18 in 10.0 mi WNW 8.1 mph - N/A   Clear
9:55 AM -12.1 °F -30.1 °F -17.9 °F 76% 30.18 in 10.0 mi NW 9.2 mph - N/A   Clear
10:15 AM -11.6 °F -25.3 °F -17.9 °F 74% 30.18 in 10.0 mi NW 5.8 mph - N/A   Clear
10:35 AM -10.5 °F -28.1 °F -16.8 °F 74% 30.17 in 10.0 mi NNW 9.2 mph - N/A   Clear
10:55 AM -10.1 °F -27.7 °F -16.6 °F 73% 30.16 in 10.0 mi NW 9.2 mph - N/A   Clear
11:15 AM -9.4 °F -25.6 °F -16.6 °F 71% 30.15 in 10.0 mi NNW 8.1 mph - N/A   Clear
11:35 AM -8.5 °F -21.6 °F -15.9 °F 70% 30.14 in 10.0 mi NNW 5.8 mph - N/A   Clear
11:55 AM -7.6 °F -20.6 °F -15.7 °F 68% 30.13 in 10.0 mi NNW 5.8 mph - N/A   Clear
12:15 PM -7.1 °F -21.4 °F -15.9 °F 66% 30.12 in 10.0 mi NNW 6.9 mph - N/A   Clear
12:35 PM -6.2 °F -17.1 °F -15.3 °F 64% 30.10 in 10.0 mi North 4.6 mph - N/A   Clear
12:55 PM -5.1 °F -20.4 °F -15.7 °F 60% 30.10 in 10.0 mi North 8.1 mph - N/A   Clear
1:15 PM -5.1 °F -20.4 °F -15.3 °F 61% 30.09 in 10.0 mi NNW 8.1 mph - N/A   Clear
1:35 PM -4.9 °F -20.1 °F -15.7 °F 60% 30.08 in 10.0 mi NW 8.1 mph - N/A   Clear
1:55 PM -4.4 °F -19.5 °F -15.5 °F 59% 30.08 in 10.0 mi North 8.1 mph - N/A   Clear
2:15 PM -3.8 °F -19.9 °F -15.3 °F 58% 30.07 in 10.0 mi NW 9.2 mph - N/A   Clear
2:35 PM -3.6 °F -18.6 °F -15.5 °F 57% 30.07 in 10.0 mi NW 8.1 mph - N/A   Clear
2:55 PM -3.3 °F -16.9 °F -15.3 °F 56% 30.07 in 10.0 mi NNW 6.9 mph - N/A   Clear
3:15 PM -3.5 °F -19.5 °F -15.9 °F 55% 30.07 in 10.0 mi NNW 9.2 mph - N/A   Clear
3:35 PM -4.0 °F -16.3 °F -16.1 °F 56% 30.07 in 10.0 mi NNW 5.8 mph - N/A   Clear
3:55 PM -4.5 °F -15.2 °F -15.9 °F 58% 30.08 in 10.0 mi NW 4.6 mph - N/A   Clear
4:15 PM -5.8 °F - -16.2 °F 61% 30.08 in 10.0 mi Calm Calm - N/A   Clear
4:35 PM -6.7 °F -15.5 °F -16.2 °F 63% 30.08 in 10.0 mi NNW 3.5 mph - N/A   Clear
4:55 PM -7.6 °F - -16.8 °F 64% 30.08 in 10.0 mi Calm Calm - N/A   Clear
5:15 PM -8.1 °F - -17.0 °F 65% 30.08 in 10.0 mi Calm Calm - N/A   Clear
5:35 PM -9.2 °F - -17.9 °F 66% 30.09 in 10.0 mi Calm Calm - N/A   Clear
5:55 PM -10.1 °F - -18.0 °F 68% 30.08 in 10.0 mi Calm Calm - N/A   Clear
6:15 PM -10.7 °F - -18.4 °F 69% 30.08 in 10.0 mi Calm Calm - N/A   Clear
6:35 PM -10.8 °F -26.0 °F -18.9 °F 67% 30.07 in 10.0 mi NW 6.9 mph - N/A   Clear
6:55 PM -11.2 °F -23.0 °F -19.3 °F 67% 30.07 in 10.0 mi NW 4.6 mph - N/A   Clear
7:15 PM -11.7 °F -28.5 °F -19.3 °F 69% 30.07 in 10.0 mi NW 8.1 mph - N/A   Clear
7:35 PM -12.3 °F -27.7 °F -20.0 °F 68% 30.06 in 10.0 mi NW 6.9 mph - N/A   Clear
7:55 PM -13.0 °F -27.0 °F -20.4 °F 70% 30.06 in 10.0 mi NW 5.8 mph - N/A   Clear
8:15 PM -13.7 °F -29.5 °F -20.7 °F 71% 30.06 in 10.0 mi NW 6.9 mph - N/A   Clear
8:35 PM -14.3 °F -26.5 °F -21.5 °F 70% 30.05 in 10.0 mi NW 4.6 mph - N/A   Clear
8:55 PM -14.8 °F -32.2 °F -22.0 °F 70% 30.05 in 10.0 mi NW 8.1 mph - N/A   Clear
9:15 PM -15.0 °F -32.4 °F -22.7 °F 68% 30.04 in 10.0 mi WNW 8.1 mph - N/A   Clear
9:35 PM -15.3 °F -32.9 °F -22.9 °F 69% 30.04 in 10.0 mi WNW 8.1 mph - N/A   Clear
9:55 PM -15.7 °F -33.3 °F -23.6 °F 67% 30.03 in 10.0 mi WNW 8.1 mph - N/A   Clear
10:15 PM -16.2 °F -35.2 °F -23.8 °F 69% 30.03 in 10.0 mi WNW 9.2 mph - N/A   Clear
10:35 PM -16.8 °F -34.6 °F -24.2 °F 69% 30.02 in 10.0 mi WNW 8.1 mph - N/A   Clear
10:55 PM -17.0 °F -36.1 °F -24.2 °F 70% 30.02 in 10.0 mi WNW 9.2 mph - N/A   Mostly Cloudy
11:15 PM -17.1 °F -36.3 °F -24.7 °F 69% 30.01 in 10.0 mi WNW 9.2 mph - N/A   Overcast
11:35 PM -18.0 °F -38.6 °F -25.1 °F 70% 30.00 in 10.0 mi NW 10.4 mph - N/A   Scattered Clouds
11:55 PM -18.6 °F -38.1 °F -25.6 °F 70% 30.00 in 10.0 mi WNW 9.2 mph - N/A   Clear